Weather reports worldwide

Advertisment
Leck, Germany (10022): temperature & dewpoint: 10.01.2021 07:00:00 - 16.01.2021 07:00:00 (CET)Leck, Germany (10022): temperature 5cm & temperature -5cm: 10.01.2021 07:00:00 - 16.01.2021 07:00:00 (CET)Leck, Germany (10022): temperature -20cm & temperature -100cm: 10.01.2021 07:00:00 - 16.01.2021 07:00:00 (CET)Leck, Germany (10022): wind speed & gusts: 10.01.2021 07:00:00 - 16.01.2021 07:00:00 (CET)Leck, Germany (10022): wind direction: 10.01.2021 07:00:00 - 16.01.2021 07:00:00 (CET)Leck, Germany (10022): reduced air pressure: 10.01.2021 07:00:00 - 16.01.2021 07:00:00 (CET)Leck, Germany (10022): visibility: 10.01.2021 07:00:00 - 16.01.2021 07:00:00 (CET)Leck, Germany (10022): sunshine duration: 10.01.2021 07:00:00 - 16.01.2021 07:00:00 (CET)Leck, Germany (10022): precipitation: 10.01.2021 07:00:00 - 16.01.2021 07:00:00 (CET)
Date & Time tt [°C] td [°C] tt 5cm [°C] tt -5cm [°C] tt -20cm [°C] tt -100cm [°C] ff [km/h] ff [kn] fx [km/h] fx [kn] dd ppp [hPa] vv [km] sd [min] rr [mm]
16.01.2021 07:00:00 -4,5 -5,7 -5,6 0,1 1,8 5,7 8 5 9 5 E 1025,6 28 0 0,0
16.01.2021 06:00:00 -1,8 -3,7 -4,7 0,1 1,8 5,7 5 3 10 6 SSW 1026,1 39 0 0,0
16.01.2021 05:00:00 -2,2 -4,5 -4,6 0,2 1,8 5,7 9 5 13 7 SSW 1026,4 39 0 0,0
16.01.2021 04:00:00 -1,6 -4,6 -3,4 0,2 1,8 5,7 9 5 14 8 WSW 1027,0 50 0 0,0
16.01.2021 03:00:00 -0,8 -4,3 -1,8 0,2 1,8 5,7 11 6 21 11 SW 1027,4 56 0 0,0
16.01.2021 02:00:00 -0,9 -4,8 -1,6 0,2 1,8 5,8 13 7 17 9 WSW 1027,8 51 0 0,0
16.01.2021 01:00:00 -1,5 -5,2 -2,7 0,2 1,9 5,8 9 5 15 8 WSW 1028,2 60 0 0,0
16.01.2021 00:00:00 -1,2 -4,9 -1,8 0,2 1,9 5,8 10 5 18 10 W 1028,7 55 0 0,0
15.01.2021 23:00:00 -1,2 -5,1 -1,9 0,3 1,9 5,8 10 5 14 8 WSW 1028,8 46 0 0,0
15.01.2021 22:00:00 -1,5 -4,9 -2,2 0,3 1,9 5,8 6 4 9 5 SW 1028,7 47 0 0,0
15.01.2021 21:00:00 -1,4 -4,9 -2,2 0,3 1,9 5,8 6 3 7 4 WSW 1029,0 42 0 0,0
15.01.2021 20:00:00 -1,4 -6,1 -2,3 0,3 1,9 5,8 5 3 13 7 NW 1029,1 69 0 0,0
15.01.2021 19:00:00 -1,3 -6,7 -1,9 0,3 1,9 5,8 9 5 17 9 NNW 1029,1 72 0 0,0
15.01.2021 18:00:00 -2,1 -7,1 -4,3 0,3 1,9 5,8 6 4 12 6 NNE 1029,0 59 0 0,0
15.01.2021 17:00:00 -1,8 -7,3 -2,9 0,3 1,9 5,8 5 3 16 9 NE 1029,0 53 0 0,0
15.01.2021 16:00:00 -1,7 -8,0 -2,1 0,3 2,0 5,8 16 8 23 12 NNE 1029,1 62 0 0,0
15.01.2021 15:00:00 -1,4 -7,5 -1,7 0,3 2,0 5,8 15 8 23 12 NNE 1028,7 64 0 0,0
15.01.2021 14:00:00 -1,0 -6,7 -0,8 0,3 2,0 5,8 17 9 26 14 NNE 1028,7 70 0 0,0
15.01.2021 13:00:00 -0,8 -6,6 -0,4 0,3 2,0 5,8 18 10 29 16 NNE 1028,5 66 7 0,0
15.01.2021 12:00:00 -0,7 -6,9 0,0 0,3 2,0 5,8 19 10 27 15 NNE 1028,4 62 52 0,0
15.01.2021 11:00:00 -1,4 -6,3 -0,5 0,3 2,0 5,8 17 9 26 14 NNE 1028,3 54 53 0,0
15.01.2021 10:00:00 -2,5 -5,8 -2,2 0,4 2,1 5,8 16 9 24 13 N 1027,8 45 37 0,0
15.01.2021 09:00:00 -2,9 -5,4 -5,0 0,4 2,1 5,8 12 6 23 12 N 1027,4 39 0 0,0
15.01.2021 08:00:00 -2,6 -4,7 -4,7 0,5 2,1 5,9 11 6 17 9 N 1026,9 29 0 0,0
15.01.2021 07:00:00 -2,2 -4,3 -4,3 0,6 2,1 5,9 10 5 19 10 N 1026,4 23 0 0,0
15.01.2021 06:00:00 -1,3 -3,6 -1,6 0,6 2,1 5,9 13 7 20 11 N 1026,0 21 0 0,0
15.01.2021 05:00:00 -0,9 -4,2 -1,5 0,6 2,1 5,9 10 6 22 12 N 1025,7 33 0 0,0
15.01.2021 04:00:00 -0,7 -3,8 -1,1 0,6 2,1 5,9 13 7 21 11 N 1025,5 32 0 0,0
15.01.2021 03:00:00 -0,8 -3,5 -1,1 0,6 2,1 5,9 15 8 23 13 N 1025,4 32 0 0,0
15.01.2021 02:00:00 -0,6 -3,5 -0,9 0,7 2,1 5,9 16 9 25 13 NNE 1025,3 29 0 0,0
15.01.2021 01:00:00 -0,3 -2,7 -0,7 0,7 2,1 5,9 16 8 23 13 NNE 1025,2 28 0 0,0
15.01.2021 00:00:00 -0,2 -2,4 -0,6 0,7 2,2 5,9 13 7 22 12 N 1025,0 26 0 0,0
14.01.2021 23:00:00 -0,1 -2,3 -0,5 0,7 2,2 5,9 13 7 22 12 N 1024,8 28 0 0,0
14.01.2021 22:00:00 0,0 -2,1 -0,4 0,6 2,2 5,9 14 8 24 13 N 1024,6 27 0 0,0
14.01.2021 21:00:00 0,1 -1,9 -0,3 0,6 2,2 5,9 12 6 18 10 N 1024,2 29 0 0,0
14.01.2021 20:00:00 0,1 -1,7 -0,3 0,6 2,2 5,9 11 6 17 9 NNE 1023,8 27 0 0,0
14.01.2021 19:00:00 0,0 -1,8 -0,4 0,6 2,2 5,9 11 6 19 10 N 1023,5 28 0 0,0
14.01.2021 18:00:00 0,1 -1,9 -0,2 0,6 2,2 5,9 15 8 20 11 N 1023,7 34 0 0,0
14.01.2021 17:00:00 0,2 -2,0 -0,2 0,6 2,2 5,9 14 8 19 10 N 1023,5 38 0 0,0
14.01.2021 16:00:00 0,3 -2,2 0,0 0,6 2,2 5,9 10 6 19 10 N 1022,7 32 0 0,0
14.01.2021 15:00:00 0,4 -2,1 0,3 0,6 2,3 5,9 11 6 19 11 N 1022,1 38 0 0,0
14.01.2021 14:00:00 0,4 -2,3 0,3 0,6 2,3 5,9 13 7 20 11 N 1022,2 48 0 0,0
14.01.2021 13:00:00 0,2 -2,6 0,4 0,6 2,3 5,9 16 9 24 13 N 1022,2 48 0 0,0
14.01.2021 12:00:00 0,1 -2,9 0,1 0,6 2,3 5,9 12 7 22 12 N 1022,1 53 0 0,0
14.01.2021 11:00:00 0,1 -3,1 0,0 0,6 2,3 5,9 13 7 25 13 N 1022,1 54 0 0,0
14.01.2021 10:00:00 -0,2 -3,7 -0,5 0,6 2,4 5,9 16 9 31 17 NNE 1020,9 52 0 0,0
14.01.2021 09:00:00 -0,1 -3,6 -0,6 0,6 2,4 5,9 16 9 28 15 NNE 1020,5 45 0 0,0
14.01.2021 08:00:00 0,0 -3,4 -0,5 0,6 2,4 5,9 19 11 31 17 NNE 1019,7 50 0 0,0
14.01.2021 07:00:00 -0,3 -3,2 -1,1 0,6 2,5 5,9 16 9 26 14 N 1018,9 43 0 0,0
14.01.2021 06:00:00 -0,9 -3,4 -2,8 0,7 2,5 6,0 16 9 29 15 N 1018,2 43 0 0,0
14.01.2021 05:00:00 -0,4 -3,0 -1,8 0,8 2,5 6,0 20 11 33 18 N 1017,5 44 0 0,0
14.01.2021 04:00:00 -0,2 -2,7 -1,6 0,8 2,6 6,0 23 12 32 17 N 1016,3 47 0 0,0
14.01.2021 03:00:00 -0,1 -2,5 -1,7 0,9 2,6 6,0 19 10 35 19 N 1015,5 38 0 0,0
14.01.2021 02:00:00 -0,1 -2,7 -1,5 0,9 2,6 6,0 26 14 38 20 N 1014,4 40 0 0,0
14.01.2021 01:00:00 0,7 -2,9 -0,1 1,0 2,7 6,0 28 15 44 24 N 1013,6 51 0 0,0
14.01.2021 00:00:00 0,8 -2,5 0,2 1,0 2,7 6,0 24 13 37 20 N 1012,7 53 0 0,0
13.01.2021 23:00:00 0,5 -2,5 0,0 1,0 2,7 6,0 23 12 34 18 NNW 1011,4 45 0 0,0
13.01.2021 22:00:00 0,1 -3,5 -1,4 1,1 2,8 6,0 22 12 38 21 NNW 1010,3 61 0 0,0
13.01.2021 21:00:00 0,5 -3,4 -0,2 1,1 2,8 6,0 27 14 43 23 N 1009,5 55 0 0,0
13.01.2021 20:00:00 1,0 -2,7 0,3 1,2 2,9 6,0 25 13 39 21 N 1008,2 66 0 0,0
13.01.2021 19:00:00 0,7 -2,8 -0,6 1,3 2,9 6,0 20 11 40 22 NNW 1007,1 66 0 0,0
13.01.2021 18:00:00 0,9 -2,3 0,3 1,4 3,0 6,0 25 13 36 19 NNW 1006,4 43 0 0,0
13.01.2021 17:00:00 0,9 -2,5 -0,3 1,7 3,0 6,0 19 10 43 23 NNW 1005,5 48 0 0,0
13.01.2021 16:00:00 1,0 -2,3 0,5 2,3 2,9 6,0 27 15 49 26 N 1004,8 56 15 0,0
13.01.2021 15:00:00 1,7 -1,0 1,5 2,8 2,9 6,0 32 17 53 29 NNW 1003,3 54 28 0,0
13.01.2021 14:00:00 3,1 -0,1 3,4 2,7 2,8 6,0 35 19 63 34 NW 1002,0 61 40 0,0
13.01.2021 13:00:00 4,3 0,2 2,8 2,5 2,8 6,0 35 19 53 29 WNW 1001,1 25 6 0,0
13.01.2021 12:00:00 2,6 1,5 2,1 2,0 2,7 6,0 22 12 54 29 W 1001,4 27 0 0,9
13.01.2021 11:00:00 2,2 1,2 1,7 2,1 2,7 6,0 31 17 70 38 WNW 1002,1 25 0 0,9
13.01.2021 10:00:00 4,2 1,3 2,9 1,7 2,7 6,0 28 15 56 31 W 1002,3 10 0 0,0
13.01.2021 09:00:00 3,6 0,1 2,0 1,3 2,7 6,0 32 17 51 28 W 1003,1 36 0 0,0
13.01.2021 08:00:00 3,0 0,9 1,8 1,2 2,8 6,0 22 12 40 22 W 1003,7 23 0 0,0
13.01.2021 07:00:00 2,8 0,8 1,6 1,1 2,8 6,0 22 12 47 25 W 1004,5 31 0 0,4
13.01.2021 06:00:00 1,3 -0,2 0,4 1,1 2,9 6,0 37 20 53 29 NW 1005,3 11 0 0,3
13.01.2021 05:00:00 2,7 0,4 0,9 1,1 2,9 6,0 19 10 31 17 W 1004,8 29 0 0,0
13.01.2021 04:00:00 2,6 0,5 1,1 1,2 2,9 6,0 22 12 32 18 W 1005,0 32 0 0,0
13.01.2021 03:00:00 2,6 0,5 1,1 1,2 3,0 6,0 21 12 53 29 W 1005,4 22 0 0,6
13.01.2021 02:00:00 2,5 -0,3 1,2 1,3 3,0 6,0 18 10 66 36 WNW 1005,4 20 0 0,1
13.01.2021 01:00:00 2,8 -0,3 1,4 1,2 3,1 6,0 25 14 42 23 WNW 1006,1 38 0 0,0
13.01.2021 00:00:00 1,5 0,4 0,7 1,3 3,1 6,0 23 13 53 28 NW 1006,2 33 0 0,6
12.01.2021 23:00:00 2,9 -0,9 1,2 1,3 3,2 6,0 21 12 48 26 WNW 1005,3 44 0 0,0
12.01.2021 22:00:00 2,7 0,3 1,3 1,4 3,3 6,0 18 10 34 18 WNW 1005,1 32 0 0,1
12.01.2021 21:00:00 2,4 -0,5 0,8 1,4 3,3 6,0 21 11 39 21 WNW 1004,8 37 0 0,0
12.01.2021 20:00:00 2,5 -0,8 0,7 1,5 3,4 6,0 18 10 39 21 WNW 1004,3 33 0 0,0
12.01.2021 19:00:00 2,3 -0,6 0,8 1,6 3,5 6,0 12 6 27 15 WNW 1003,8 31 0 0,3
12.01.2021 18:00:00 2,1 -0,4 0,4 1,9 3,6 6,0 10 5 30 16 WNW 1003,4 33 0 0,0
12.01.2021 17:00:00 1,8 -0,1 0,0 2,3 3,6 6,0 13 7 33 18 WNW 1002,8 34 0 0,0
12.01.2021 16:00:00 2,4 1,0 1,4 2,8 3,6 5,9 12 6 31 17 WNW 1002,0 43 42 0,0
12.01.2021 15:00:00 2,6 1,4 2,7 3,0 3,6 5,9 26 14 37 20 NW 1001,2 65 8 0,6
12.01.2021 14:00:00 1,1 0,2 0,9 3,4 3,6 5,9 27 15 49 26 WNW 1000,4 7 15 0,2
12.01.2021 13:00:00 4,0 1,4 3,7 3,1 3,6 5,9 16 9 36 19 W 1000,0 39 17 0,0
12.01.2021 12:00:00 4,4 0,7 3,8 2,1 3,7 5,9 14 8 23 12 WSW 1000,2 53 13 0,0
12.01.2021 11:00:00 2,5 0,4 1,6 1,7 3,8 5,9 11 6 16 9 SW 1000,5 42 22 0,0
12.01.2021 10:00:00 1,6 -0,5 -0,1 1,7 3,9 5,9 13 7 19 10 SW 1000,7 45 36 0,0
12.01.2021 09:00:00 1,0 -0,9 -1,5 1,8 4,0 5,9 9 5 23 12 W 1000,4 47 0 0,0
12.01.2021 08:00:00 0,9 -0,5 -2,2 2,0 4,2 5,9 7 4 15 8 W 1000,1 44 0 0,0
12.01.2021 07:00:00 1,3 0,0 -0,4 2,3 4,3 5,9 10 6 21 11 NW 999,8 37 0 0,0
12.01.2021 06:00:00 2,1 0,9 0,2 3,3 4,3 5,9 10 5 25 14 NW 999,6 31 0 0,0
12.01.2021 05:00:00 3,7 2,0 2,6 3,9 4,4 5,9 15 8 25 14 NW 999,2 36 0 0,0
12.01.2021 04:00:00 3,8 2,7 3,1 4,2 4,4 5,9 13 7 30 16 WNW 998,9 40 0 0,2
12.01.2021 03:00:00 4,0 3,3 3,5 4,5 4,4 5,9 11 6 29 15 NW 998,6 6 0 0,1
12.01.2021 02:00:00 4,3 3,4 3,8 5,0 4,3 5,9 21 12 59 32 NW 997,8 24 0 0,5
12.01.2021 01:00:00 6,4 6,2 6,1 5,1 4,2 5,9 32 18 59 32 WSW 996,3 6 0 2,0
12.01.2021 00:00:00 6,2 5,9 5,8 5,0 4,2 5,9 41 22 63 34 SW 996,8 5 0 2,5
11.01.2021 23:00:00 5,8 5,5 5,5 4,7 4,1 5,9 43 23 60 32 SW 997,7 10 0 1,1
11.01.2021 22:00:00 5,5 5,1 5,1 4,7 4,1 5,9 39 21 61 33 SW 999,0 3,2 0 0,6
11.01.2021 21:00:00 5,4 5,0 5,0 4,6 4,1 5,9 37 20 56 31 SW 1000,3 2,1 0 0,3
11.01.2021 20:00:00 5,3 4,8 4,9 4,5 4,0 5,9 38 20 54 29 SW 1001,4 2,6 0 0,1
11.01.2021 19:00:00 5,3 4,6 4,9 4,5 4,0 5,9 32 18 51 28 SW 1002,4 9 0 0,0
11.01.2021 18:00:00 5,3 4,8 4,9 4,5 3,9 5,9 35 19 53 29 SW 1003,2 4,4 0 0,4
11.01.2021 17:00:00 5,1 4,8 4,8 4,5 3,9 5,9 37 20 55 30 SW 1004,1 2,8 0 0,9
11.01.2021 16:00:00 5,1 4,6 4,8 4,5 3,8 5,9 37 20 50 27 SW 1004,9 2,5 0 0,9
11.01.2021 15:00:00 5,2 4,7 4,9 4,6 3,7 5,9 34 18 53 29 SW 1005,8 6 0 0,4
11.01.2021 14:00:00 5,2 4,5 4,8 4,6 3,6 5,9 37 20 51 28 SW 1006,8 6 0 0,1
11.01.2021 13:00:00 5,3 4,5 4,9 4,6 3,5 5,9 35 19 56 30 SW 1007,8 7 0 0,1
11.01.2021 12:00:00 5,4 4,5 5,1 4,4 3,5 5,9 35 19 50 27 SW 1008,9 11 0 0,0
11.01.2021 11:00:00 5,4 4,8 5,1 4,2 3,4 5,9 32 17 45 24 SW 1009,7 10 0 0,3
11.01.2021 10:00:00 5,2 4,7 4,8 4,0 3,3 5,9 26 14 41 22 SW 1010,2 6 0 0,1
11.01.2021 09:00:00 5,2 4,8 4,8 3,9 3,2 5,9 26 14 41 22 SW 1010,3 5 0 0,6
11.01.2021 08:00:00 5,2 4,8 4,8 3,8 3,1 5,9 27 15 48 26 SW 1010,6 6 0 0,7
11.01.2021 07:00:00 5,2 4,6 4,7 3,6 3,0 5,9 32 17 49 26 SW 1011,1 6 0 0,5
11.01.2021 06:00:00 5,1 4,6 4,6 3,4 2,9 6,0 29 16 46 25 SW 1011,7 8 0 0,8
11.01.2021 05:00:00 4,9 4,5 4,5 3,1 2,9 6,0 26 14 44 24 SW 1012,8 6 0 1,0
11.01.2021 04:00:00 4,4 3,9 3,9 2,7 2,8 6,0 21 11 29 15 SSW 1014,0 11 0 1,1
11.01.2021 03:00:00 4,5 2,8 3,4 2,3 2,8 6,0 16 9 23 13 SW 1014,6 18 0 0,2
11.01.2021 02:00:00 3,4 2,0 2,4 2,0 2,8 6,0 12 7 18 10 SSW 1015,2 21 0 0,0
11.01.2021 01:00:00 3,0 1,4 1,7 1,9 2,8 6,0 12 6 16 9 SW 1015,7 28 0 0,0
11.01.2021 00:00:00 3,5 1,9 2,2 2,1 2,8 6,0 11 6 18 10 WSW 1016,2 32 0 0,0
10.01.2021 23:00:00 3,3 2,0 2,2 2,1 2,8 6,0 14 8 19 10 SW 1016,5 40 0 0,0
10.01.2021 22:00:00 2,7 1,8 1,8 2,3 2,8 6,0 8 5 10 6 SW 1016,8 48 0 0,0
10.01.2021 21:00:00 3,0 2,5 2,5 2,3 2,8 6,0 8 4 12 6 SW 1017,0 26 0 0,0
10.01.2021 20:00:00 2,9 2,6 2,4 2,2 2,7 6,0 7 4 11 6 W 1017,1 7 0 0,0
10.01.2021 19:00:00 3,2 3,0 1,7 2,4 2,7 6,0 5 3 9 5 W 1016,8 6 0 0,0
10.01.2021 18:00:00 3,5 3,4 2,8 2,6 2,6 6,0 7 4 21 11 WSW 1016,9 16 0 0,1
10.01.2021 17:00:00 4,0 3,6 3,6 2,8 2,5 6,0 15 8 42 23 WSW 1016,9 5 0 1,2
10.01.2021 16:00:00 3,7 3,3 3,4 2,6 2,4 6,0 29 16 43 23 SW 1016,8 1,9 0 0,5
10.01.2021 15:00:00 3,6 2,9 3,2 2,3 2,3 6,0 32 17 44 24 SSW 1017,1 2,1 0 0,0
10.01.2021 14:00:00 3,5 2,7 3,1 2,0 2,3 6,0 27 14 42 23 SSW 1017,7 2,3 0 0,0
10.01.2021 13:00:00 3,8 2,9 3,4 1,4 2,3 6,0 27 14 37 20 SSW 1018,3 11 0 0,0
10.01.2021 12:00:00 3,5 2,7 3,0 0,9 2,3 6,0 27 14 36 20 SSW 1019,0 9 0 0,0
10.01.2021 11:00:00 2,3 1,9 1,8 0,8 2,3 6,0 21 11 29 16 SSW 1019,5 6 0 0,0
10.01.2021 10:00:00 1,6 1,3 1,1 0,8 2,3 6,0 20 11 29 16 SSW 1019,9 5 0 0,0
10.01.2021 09:00:00 0,7 0,7 0,2 0,8 2,3 6,0 17 9 26 14 SSW 1020,0 4,2 0 0,0
10.01.2021 08:00:00 -0,2 -0,4 -0,3 0,8 2,3 6,0 18 10 30 16 S 1020,2 0,6 0 0,0
10.01.2021 07:00:00 -0,5 -0,8 -0,5 0,8 2,4 6,0 19 11 30 16 S 1020,5 1,1 0 0,0

tt = temperature
td = dewpoint
tt 5cm = temperature 5cm
tt -5cm = temperature -5cm
tt -20cm = temperature -20cm
tt -100cm = temperature -100cm
ff = wind speed
fx = gusts
dd = wind direction
ppp = reduced air pressure
vv = visibility
sd = sunshine duration
rr = precipitation

Next stations